Regional Weather Roundup
Issued by NWS Green Bay, WI

Home | Current Version | Previous Version | Graphics & Text | Print | Product List | Glossary Off
Versions: 1 2 3 4 5 6 7 8 9 10 11 12 13 14 15 16 17 18 19 20 21 22 23 24 25 26 27 28 29 30 31 32 33 34 35 36 37 38 39 40 41 42 43 44 45 46 47 48 49 50

000
ASUS43 KGRB 190501
RWRGRB

NORTH-CENTRAL AND NORTHEAST WISCONSIN REGIONAL WEATHER ROUNDUP
NATIONAL WEATHER SERVICE GREEN BAY WI
1200 AM CDT TUE SEP 19 2017

WIZ005-009-010>012-018-019-190600-
NORTH CENTRAL WISCONSIN

CITY           SKY/WX    TMP DP  RH WIND       PRES   REMARKS
IRONWOOD       CLOUDY    57  53  86 SE8       30.04F
MANITOWISH WTR NOT AVBL
ARBOR VITAE    NOT AVBL
EAGLE RIVER    NOT AVBL
LAND O LAKES   NOT AVBL
RHINELANDER    CLOUDY    56  55  97 SE5       30.07R
PHILLIPS       NOT AVBL
ANTIGO         NOT AVBL
TOMAHAWK       NOT AVBL
MERRILL        NOT AVBL
$$

WIZ013-073-190600-
NORTHEAST WISCONSIN

CITY           SKY/WX    TMP DP  RH WIND       PRES   REMARKS
IRON MOUNTAIN  CLOUDY    57  52  83 CALM      30.08R
MARINETTE      CLOUDY    62  53  72 E5        30.06R
$$

WIZ017-030-035>037-045-190600-
CENTRAL WISCONSIN

CITY           SKY/WX    TMP DP  RH WIND       PRES   REMARKS
MEDFORD        NOT AVBL
WAUSAU         CLOUDY    57  54  89 E6        30.03R
MOSINEE        NOT AVBL
MARSHFIELD     CLOUDY    59  55  87 E3        30.02R
WISC RAPIDS    CLOUDY    61  55  81 SE6       30.02F
STEVENS POINT  NOT AVBL
WAUPACA        NOT AVBL
SHAWANO        NOT AVBL
CLINTONVILLE   NOT AVBL
WAUTOMA        CLOUDY    60  55  83 NE3       30.03S
$$

WIZ038-039-048-051-190600-
FOX VALLEY

CITY           SKY/WX    TMP DP  RH WIND       PRES   REMARKS
NWS GREEN BAY  CLOUDY    58  53  84 NE5       30.02F
APPLETON       NOT AVBL
OSHKOSH        CLOUDY    62  54  74 E6        30.01S
FOND DU LAC    MOCLDY    61  53  75 NE5       30.01S
$$

WIZ022-050-052-190600-
EAST CENTRAL WISCONSIN

CITY           SKY/WX    TMP DP  RH WIND       PRES   REMARKS
EPHRAIM        NOT AVBL
WASHINGTON ISL NOT AVBL
STURGEON BAY   CLOUDY    59  53  80 N5        30.04F
MANITOWOC      MOCLDY    57  54  89 NW6       30.02F
SHEBOYGAN      PTCLDY    55  55 100 NW5       30.00F
$$

LMZ563-521-522-541>543-190600-
LAKESHORE

STATION/POSITION TIME  TEMP    WIND        PRES    VSBY  WAVE
                       AIR SEA DIR/SP/G                  HT/PER
                 (UTC) (F)     (DEG/KT/KT) (MB)    (MI)  (FT/S)
SHEBOYGAN LKSHOR 0400   60     320/  4/  4 1016.5F
KEWAUNEE LKSHORE 0424   60     320/  1/  2 1015.9
NORTHPORT PIER   0440   64     110/ 12/ 14 1016.9F
N MID LAKE BUOY  0350   64 65  110/ 12/ 14 1018.1F         1
S GREEN BAY BUOY 0430   63 66  110/  8/ 10 1017.0R
SISTER BAY LKSHO 0419   62     130/  3/  6   N/A
MENOMINEE LKSHOR 0424   63      80/  8/  9 1017.0
$$



USA.gov is the U.S. government's official web portal to all federal, state and local government web resources and services.